Location: Bogis-Bossey
(46.3500°N, 6.1667°E)
Time: 18:22:05
(UTC+00:00)

Cosmos 1727 Rocket - Pass Details

Date: 17 August 2022
Orbit: 962 x 995 km, 82.9° (Epoch: 30 September)

Event Time Altitude Azimuth Distance (km) Brightness Sun altitude
Rises 19:48:21 0° 194° (SSW) 3,638 6.8 -11.1°
Reaches altitude 10° 19:50:52 10° 197° (SSW) 2,693 6.2 -11.5°
Maximum altitude 19:57:00 69° 280° (W) 1,027 4.3 -12.4°
Drops below altitude 10° 20:03:11 10° 4° (N) 2,710 6.8 -13.2°
Sets 20:05:43 0° 7° (N) 3,663 7.4 -13.6°
